[[{"header":{"parameterUnit":"m.s-1","parameterCategory":1,"la1":30.2991,"la2":30.254,"lo1":-89.0895,"lo2":-89.0444,"dy":0.0017,"dx":0.0017,"nx":28,"ny":28,"refTime":"2024-07-28T09:00:00:Z","depth":0,"parameterNumber":2,"parameterNumberName":"U-component_of_WINDS"},"data":[0,0,0,0,0,0,0,0,0,0,0,0,0,0,0,0,0,0,0,0,0,0,0,0,0,0,0,0,0,0,0,0,0,0,0,0,0,0,0,0,0,0,0,0,0,0,0,0,0,0,0,0,0,0,0,0,0,0,3.5117,3.5118,0,3.5146,3.5146,3.5147,3.5069,3.5066,3.5064,3.5062,3.5091,3.5094,3.5097,0,0,0,0,0,0,0,0,0,0,0,0,0,3.4994,3.4996,3.5117,3.5118,3.5118,3.5146,3.5146,3.5147,3.5069,3.5066,3.5063,3.5061,3.509,3.5094,3.5097,0,0,0,0,0,0,0,0,0,0,0,0,0,3.5037,3.4997,3.5117,3.5083,3.508,3.5146,3.5146,3.5147,3.507,3.5066,3.5063,3.5059,3.5089,3.5093,3.5098,3.5198,0,0,3.5112,3.5114,0,0,0,0,0,0,0,0,3.5035,3.5042,3.5087,3.5085,3.5082,3.51,3.5113,3.5164,3.5071,3.5074,3.5062,3.5057,3.5097,3.5101,3.5114,3.52,3.5201,3.5112,3.5115,3.5117,3.5118,0,0,0,0,0,0,0,3.5032,3.504,3.5128,3.5088,3.5085,3.5065,3.5067,3.5123,3.5105,3.5073,3.5068,3.5072,3.5095,3.511,3.5114,3.5201,3.5112,3.5116,3.5119,3.5121,3.5367,3.5371,0,0,0,0,0,0,3.5034,3.5038,3.5128,3.5129,3.5049,3.507,3.5073,3.5098,3.5105,3.5102,3.5075,3.5068,3.5104,3.5109,3.5115,3.523,3.5117,3.5121,3.5124,3.5363,3.5368,3.5372,0,0,0,0,0,0,3.5031,3.5042,3.5126,3.5082,3.5092,3.5076,3.5105,3.51,3.5115,3.5106,3.5102,3.5094,3.5101,3.5108,3.5177,3.523,3.5123,3.5127,3.5359,3.5365,3.537,3.5462,0,0,0,0,0,0,3.5028,3.5042,3.5081,3.5084,3.5094,3.5189,3.5109,3.5104,3.5123,3.5115,3.5122,3.512,3.5099,3.5171,3.5182,3.5234,3.5131,3.5354,3.5361,3.5368,3.5454,3.547,3.5484,0,0,0,0,0,3.5024,3.5106,3.5083,3.5094,3.5142,3.5192,3.5198,3.5172,3.5128,3.5166,3.5159,3.512,3.5223,3.5179,3.519,3.5245,3.535,3.5359,3.5368,3.5448,3.5467,3.5484,0,0,0,0,0,0,3.511,3.5106,3.508,3.5166,3.518,3.5179,3.5226,3.5194,3.5221,3.5212,3.5178,3.5181,3.5255,3.5257,3.5208,3.534,3.5279,3.529,3.5336,3.5354,3.5369,3.5365,3.5135,0,0,0,0,0,3.514,3.5181,3.5175,3.5251,3.526,3.5242,3.5263,3.5241,3.5255,3.526,3.5259,3.5273,3.5308,3.5332,3.5364,3.5455,3.5454,3.5498,3.5513,3.5525,3.5534,3.5579,3.5598,3.54,3.54,3.54,0,0,3.52,3.5203,3.5231,3.5269,3.5277,3.5319,3.5248,3.5296,3.5327,3.5268,3.5331,3.5331,3.5344,3.5424,3.5459,3.5428,3.5589,3.5536,3.5546,3.5549,3.559,3.5609,3.5625,3.5406,3.5405,3.5404,0,0,3.533,3.5339,3.5401,3.541,3.5423,3.541,3.5426,3.5429,3.5426,3.549,3.5445,3.5482,3.5544,3.5554,3.5567,3.57,3.5663,3.5712,3.5788,3.5832,3.5848,3.5861,3.5905,3.5921,3.5721,3.5722,3.5722,0,3.5404,3.5466,3.5437,3.5488,3.5504,3.5452,3.5514,3.5525,3.5548,3.556,3.5526,3.56,3.5606,3.5685,3.5717,3.5731,3.5745,3.5709,3.5848,3.5861,3.5873,3.5914,3.5932,3.5727,3.5727,3.5726,3.5725,0,3.5553,3.5597,3.5646,3.5668,3.569,3.5747,3.5725,3.5752,3.5728,3.5719,3.5783,3.5788,3.5818,3.5836,3.5815,3.5912,3.5892,3.5854,3.579,3.5898,3.5936,3.5952,3.5735,3.5733,3.5731,3.573,0,0,3.5738,3.5742,3.5761,3.5768,3.5778,3.5811,3.5865,3.5894,3.5915,3.5933,3.5975,3.6028,3.5991,3.6007,3.5986,3.6025,3.6125,3.5981,3.598,3.6004,3.6228,3.6255,3.6274,3.6102,3.6105,3.6108,3.6226,0,3.5864,3.5954,3.5929,3.6019,3.6057,3.6008,3.6053,3.6064,3.6057,3.6088,3.608,3.6116,3.6067,3.6076,3.6113,3.6105,3.6169,3.6097,3.6138,3.614,3.6133,3.6294,3.6323,3.6434,3.6241,3.6244,3.6246,0,3.6023,3.6044,3.6138,3.6138,3.6153,3.6195,3.6218,3.6249,3.6259,3.6251,3.6268,3.6238,3.6289,3.6228,3.6296,3.6247,3.6263,3.6262,3.6265,3.6265,3.6197,3.6295,3.647,3.6485,3.6269,3.6268,3.6266,0,3.6143,3.6197,3.6258,3.6267,3.627,3.63,3.6303,3.631,3.6328,3.6348,3.6359,3.6387,3.64,3.6421,3.6399,3.6358,3.6469,3.6408,3.6462,3.6462,3.6485,3.6483,3.6661,3.6502,3.6502,3.6501,3.6501,0,3.6284,3.6342,3.6312,3.6349,3.6412,3.6383,3.6446,3.6443,3.6449,3.6484,3.6445,3.6479,3.6449,3.648,3.6464,3.652,3.6528,3.6521,3.6515,3.6522,3.6523,3.653,3.652,3.6506,3.6505,3.6504,3.6503,0,3.6428,3.6411,3.6474,3.6471,3.6472,3.6518,3.6515,3.6549,3.6539,3.6584,3.6593,3.6577,3.6611,3.6592,3.6628,3.6616,3.6689,3.6674,3.6685,3.6679,3.6733,3.6727,3.6919,3.6941,3.6771,3.6773,3.6774,0,3.6517,3.656,3.6562,3.6582,3.6587,3.6621,3.6638,3.6611,3.6631,3.6645,3.6677,3.6708,3.673,3.6787,3.6778,3.6804,3.6788,3.6853,3.6792,3.6796,3.6784,3.678,3.6783,3.6865,3.6867,3.6868,3.687,0,3.6676,3.6665,3.6692,3.6715,3.6737,3.6754,3.6769,3.6788,3.676,3.6785,3.6818,3.6836,3.6871,3.6901,3.6923,3.6925,3.6892,3.689,3.6903,3.6909,3.6911,3.6906,3.6714,3.6885,3.6883,3.6882,3.6881,3.6881,3.6793,3.6827,3.6832,3.6863,3.687,3.6884,3.6914,3.6908,3.6935,3.6961,3.6944,3.6983,3.699,3.7016,3.7022,3.7052,3.7025,3.7046,3.705,3.7054,3.706,3.691,3.7057,3.7056,3.7056,3.7055,3.7055,0,3.6945,3.6946,3.6975,3.6994,3.7018,3.6986,3.6999,3.702,3.7055,3.7065,3.7087,3.7125,3.7153,3.7147,3.7172,3.7197,3.7182,3.7204,3.72,3.72,3.7084,3.7068,3.7215,3.7215,3.7215,3.7215,3.7215,3.7215,3.7028,3.7083,3.7072,3.713,3.713,3.7167,3.7177,3.7189,3.7196,3.7239,3.7262,3.7258,3.726,3.7285,3.7309,3.7306,3.7315,3.7342,3.7334,3.7225,3.7209,3.7193,3.7178,3.7346,3.7346,3.7446,3.7447,3.7448]},{"header":{"parameterUnit":"m.s-1","parameterCategory":1,"la1":30.2991,"la2":30.254,"lo1":-89.0895,"lo2":-89.0444,"dy":0.0017,"dx":0.0017,"nx":28,"ny":28,"refTime":"2024-07-28T09:00:00:Z","depth":0,"parameterNumber":3,"parameterNumberName":"V-component_of_WINDS"},"data":[0,0,0,0,0,0,0,0,0,0,0,0,0,0,0,0,0,0,0,0,0,0,0,0,0,0,0,0,0,0,0,0,0,0,0,0,0,0,0,0,0,0,0,0,0,0,0,0,0,0,0,0,0,0,0,0,0,0,2.6031,2.6033,0,2.623,2.6232,2.6234,2.627,2.6268,2.6267,2.6265,2.6474,2.6481,2.6488,0,0,0,0,0,0,0,0,0,0,0,0,0,2.5686,2.5692,2.6031,2.6033,2.6036,2.6229,2.6232,2.6235,2.627,2.6268,2.6266,2.6264,2.6472,2.648,2.6489,0,0,0,0,0,0,0,0,0,0,0,0,0,2.5855,2.5694,2.603,2.6077,2.6083,2.6229,2.6232,2.6236,2.6271,2.6268,2.6266,2.6263,2.6469,2.6479,2.649,2.6605,0,0,2.6522,2.6527,0,0,0,0,0,0,0,0,2.5846,2.5868,2.6067,2.6074,2.6081,2.6222,2.6187,2.636,2.6271,2.6199,2.6265,2.6262,2.6393,2.6409,2.6452,2.6615,2.6624,2.6523,2.653,2.6534,2.6537,0,0,0,0,0,0,0,2.5834,2.586,2.611,2.607,2.6078,2.6089,2.611,2.622,2.6308,2.6205,2.6209,2.6231,2.6396,2.6442,2.6458,2.6627,2.6523,2.6532,2.6539,2.6543,2.6895,2.6897,0,0,0,0,0,0,2.5813,2.585,2.6103,2.6116,2.5954,2.6097,2.6121,2.6179,2.6307,2.6323,2.6233,2.6232,2.6425,2.6445,2.6465,2.6609,2.6534,2.6544,2.655,2.6892,2.6895,2.6898,0,0,0,0,0,0,2.5806,2.5835,2.6095,2.5983,2.6017,2.6105,2.6171,2.6185,2.6231,2.6327,2.6344,2.6264,2.6424,2.645,2.657,2.6616,2.6549,2.6559,2.6888,2.6893,2.6897,2.6897,0,0,0,0,0,0,2.5796,2.5832,2.5876,2.5984,2.6023,2.6196,2.6174,2.619,2.6249,2.6249,2.6361,2.6377,2.6424,2.6554,2.658,2.663,2.6567,2.6885,2.689,2.6895,2.6893,2.6901,2.6907,0,0,0,0,0,2.5783,2.587,2.5878,2.5909,2.608,2.6198,2.6221,2.6271,2.6252,2.6298,2.636,2.6373,2.6607,2.6566,2.6596,2.6649,2.6882,2.6889,2.6895,2.689,2.6899,2.6907,0,0,0,0,0,0,2.5768,2.5885,2.5896,2.602,2.6098,2.6204,2.6263,2.628,2.6367,2.6364,2.6425,2.645,2.6567,2.662,2.6572,2.6768,2.6743,2.6756,2.6729,2.6738,2.6745,2.673,2.6576,0,0,0,0,0,2.5778,2.5863,2.5962,2.6061,2.61,2.6174,2.6228,2.626,2.6345,2.6379,2.645,2.6533,2.6625,2.6685,2.6775,2.69,2.6926,2.6952,2.6959,2.6964,2.6975,2.7046,2.7059,2.692,2.692,2.692,0,0,2.5802,2.5876,2.5927,2.606,2.6125,2.6213,2.6202,2.6296,2.6362,2.6394,2.6511,2.6565,2.6662,2.6785,2.6843,2.6833,2.7019,2.6973,2.6976,2.6985,2.7054,2.7067,2.7078,2.6925,2.6924,2.6923,0,0,2.589,2.5954,2.6044,2.6109,2.6206,2.6255,2.6276,2.6379,2.6416,2.6533,2.6559,2.6639,2.6796,2.6864,2.6919,2.703,2.7047,2.7058,2.7096,2.7163,2.7174,2.7184,2.7224,2.7238,2.7069,2.7069,2.7069,0,2.5908,2.6039,2.6089,2.6181,2.6239,2.6269,2.6361,2.6422,2.6545,2.6585,2.6571,2.6769,2.6836,2.6975,2.7002,2.7046,2.7073,2.7046,2.7168,2.7179,2.7189,2.7228,2.7243,2.7069,2.7069,2.7069,2.7069,0,2.6056,2.6147,2.6208,2.6323,2.6388,2.648,2.6544,2.6604,2.663,2.6681,2.68,2.6882,2.6988,2.7024,2.7051,2.7167,2.7158,2.7156,2.7132,2.7202,2.724,2.7255,2.7071,2.707,2.707,2.707,0,0,2.6142,2.6281,2.6303,2.6355,2.6464,2.6536,2.6629,2.6731,2.6782,2.6865,2.6945,2.7076,2.7075,2.7137,2.7172,2.7232,2.7315,2.7223,2.7226,2.7237,2.7448,2.7449,2.7465,2.7325,2.7328,2.7331,2.744,0,2.6243,2.6408,2.6455,2.6595,2.6679,2.6708,2.6789,2.6865,2.6915,2.6995,2.705,2.7142,2.7132,2.717,2.723,2.7292,2.7358,2.7284,2.7402,2.7405,2.7377,2.7485,2.7487,2.7586,2.7455,2.7457,2.7459,0,2.6384,2.6467,2.6614,2.6711,2.6748,2.682,2.6917,2.6993,2.708,2.7111,2.718,2.7209,2.7308,2.7278,2.7416,2.7365,2.7416,2.7453,2.7458,2.7472,2.7437,2.7502,2.7619,2.7633,2.7483,2.7481,2.7479,0,2.6431,2.658,2.6688,2.6731,2.6847,2.6897,2.6947,2.7032,2.709,2.7175,2.7214,2.731,2.7363,2.7438,2.7493,2.7466,2.7626,2.7601,2.7656,2.7655,2.769,2.7687,2.7816,2.7721,2.7721,2.7721,2.772,0,2.654,2.6629,2.671,2.6776,2.6877,2.693,2.7029,2.7082,2.7156,2.7234,2.7266,2.7338,2.7406,2.7488,2.7532,2.7639,2.7663,2.7692,2.7703,2.769,2.7686,2.7725,2.772,2.7725,2.7724,2.7723,2.7722,0,2.6611,2.6669,2.6788,2.6886,2.6913,2.6983,2.7068,2.7134,2.7183,2.7281,2.7307,2.7386,2.7484,2.7545,2.7671,2.77,2.7818,2.7827,2.7788,2.7794,2.7846,2.784,2.8005,2.803,2.7917,2.7918,2.7919,0,2.6677,2.6745,2.685,2.6903,2.6954,2.704,2.7098,2.7153,2.7213,2.7317,2.737,2.747,2.7552,2.7708,2.7777,2.7873,2.7884,2.7935,2.7899,2.7883,2.7886,2.7881,2.7888,2.7942,2.7942,2.7943,2.7944,0,2.6787,2.6812,2.6894,2.6986,2.7055,2.7131,2.7207,2.7249,2.7317,2.7384,2.7483,2.7547,2.7673,2.7772,2.7873,2.7928,2.7948,2.7954,2.7972,2.796,2.7935,2.795,2.7805,2.7951,2.795,2.795,2.7949,2.7949,2.6858,2.692,2.7003,2.7094,2.7156,2.7226,2.7292,2.7349,2.7432,2.7538,2.7565,2.7669,2.7755,2.7893,2.7949,2.8032,2.8025,2.8051,2.8058,2.8064,2.8065,2.7921,2.8051,2.805,2.805,2.805,2.805,0,2.6971,2.7025,2.7107,2.7211,2.7283,2.7292,2.7377,2.7436,2.7527,2.7603,2.7683,2.7797,2.7893,2.7968,2.8067,2.8119,2.8131,2.8143,2.814,2.8152,2.8065,2.8039,2.8132,2.8132,2.8132,2.8132,2.8132,2.8132,2.7037,2.7143,2.7177,2.7314,2.7369,2.7469,2.7516,2.7581,2.7642,2.7767,2.7846,2.7894,2.797,2.8074,2.8163,2.8183,2.8218,2.8229,2.825,2.8168,2.8159,2.815,2.8127,2.8236,2.8236,2.8331,2.8332,2.8333]}]]